Flag for Western Sahara Weather past 2 weeks in El Aaiún, Western Sahara

Now
68 °F

Clear.


Feels Like: 68 °F
Forecast: 67 / 82 °F
Wind: 3 mph from Northeast

Location: Laayoune/Hassan Isl

Current Time: Aug 2, 2015 at 6:07:45 AM

Latest Report: Aug 2, 2015 at 5:00 AM


Visibility: 5 mi

Pressure: 29.95 "Hg

Humidity: 83%

Dew point: 63 °F

Location of El AaiúnLocation

Historic Weather in El Aaiún — Graph

°F

El Aaiún temperature yesterday

Maximum temperature yesterday: 84 °F (at 4:00 PM)
Minimum temperature yesterday: 66 °F (at 5:00 AM)
Average temperature yesterday: 75 °F

Past Weeks' High & Low Weather Summary

 TemperatureHumidityPressure
High91 °F (Jul 22, 2:00 PM)94% (Aug 1, 5:00 AM)30.07 "Hg (Aug 1, 5:00 AM)
Low66 °F (Aug 1, 5:00 AM)33% (Jul 24, 3:00 PM)29.83 "Hg (Jul 20, 6:00 PM)
Average76 °F68%29.95 "Hg
* Reported Jul 18 3:00 AM — Aug 2 4:00 AM, El Aaiún, Weather by CustomWeather, © 2015

Note: Actual official high and low records may vary slightly from our data, if they occured in-between our weather recording intervals... More about our weather records

Advertising

El Aaiún weather history for previous 24 hours

 ConditionsComfort  
Time TempWeatherWind HumidityBarometerVisibility
4:00 AM
Sun, Aug 2
68 °FClear.6 mph88%29.95 "Hg5 mi
3:00 AM68 °FClear.2 mph83%29.95 "Hg5 mi
2:00 AM68 °FClear.5 mph78%29.98 "Hg5 mi
1:00 AM72 °FClear.7 mph73%29.98 "Hg5 mi
12:00 AM72 °FClear.8 mph73%29.98 "Hg5 mi
11:00 PM
Sat, Aug 1
73 °FClear.12 mph65%29.98 "Hg10 mi
10:00 PM75 °FPassing clouds.8 mph65%29.95 "HgN/A
9:00 PM77 °FPassing clouds.13 mph54%29.92 "HgN/A
8:00 PM79 °FScattered clouds.14 mph48%29.92 "HgN/A
7:00 PM82 °FScattered clouds.15 mph42%29.89 "HgN/A
6:00 PM81 °FPassing clouds.18 mph51%29.92 "HgN/A
5:00 PM82 °FScattered clouds.17 mph45%29.92 "HgN/A
4:00 PM84 °FScattered clouds.17 mph45%29.92 "HgN/A
3:00 PM82 °FScattered clouds.18 mph48%29.95 "HgN/A
2:00 PM82 °FScattered clouds.13 mph51%29.92 "HgN/A
1:00 PM82 °FScattered clouds.14 mph51%29.95 "HgN/A
12:00 PM79 °FScattered clouds.14 mph51%29.95 "HgN/A
11:00 AM75 °FBroken clouds.12 mph69%29.95 "HgN/A
10:00 AM73 °FBroken clouds.14 mph74%29.95 "HgN/A
9:00 AM70 °FBroken clouds.8 mph94%29.95 "HgN/A
8:00 AM68 °FPassing clouds.7 mph88%29.92 "Hg5 mi
7:00 AM68 °FPassing clouds.7 mph88%29.92 "Hg4 mi
Weather by CustomWeather, © 2015

See weather overviewHow to use our weather pages